Location: Bucquoy
(50.1391°N, 2.7097°E)
Time: 02:10:50
(UTC+00:00)

Cosmos 2150 Rocket - Pass Details

Date: 06 May 2021
Orbit: 750 x 807 km, 74.0° (Epoch: 24 June)

Event Time Altitude Azimuth Distance (km) Brightness Sun altitude
Exits shadow 00:45:24 46° 164° (SSE) 1,051 4.3 -22.0°
Maximum altitude 00:46:45 62° 109° (ESE) 886 4.2 -22.0°
Drops below altitude 10° 00:52:01 10° 29° (NNE) 2,345 7.6 -21.7°
Sets 00:54:24 0° 27° (NNE) 3,268 8.7 -21.6°
